Wind_Speed
14 14 13 13 13 12 10 10 9 9 8 8 7 5 4 3 2 1 1 1 0 1 2 3 3 3 3 3 4 4 4 4 4 4 4 4 4 4 4 4 4 4 5
14 15 15 14 13 12 11 11 11 10 9 8 7 6 5 4 3 2 2 2 1 2 2 2 2 3 3 3 3 3 3 3 4 4 4 4 5 5 4 4 5 5 5
15 16 17 16 15 14 13 12 12 11 11 10 8 7 6 5 4 4 3 3 3 3 3 3 3 3 3 3 3 3 3 3 3 3 4 4 5 4 4 5 5 5 6
16 17 18 17 16 15 14 13 13 12 12 11 10 8 7 6 6 5 5 4 4 4 4 4 3 3 3 3 2 2 3 3 3 3 4 4 5 5 5 5 6 5 6
18 19 18 18 17 16 15 15 14 14 13 12 11 10 9 8 7 7 6 6 6 5 5 4 4 3 3 3 2 2 3 3 4 4 4 4 5 5 5 5 6 6 6
19 20 19 18 18 17 16 16 16 15 15 14 13 12 10 9 9 8 8 7 7 6 6 5 5 4 3 3 3 3 3 3 4 4 4 5 5 6 6 6 6 6 7
19 19 19 19 19 18 17 17 17 16 16 15 14 13 12 11 10 10 9 8 8 7 7 6 6 5 4 4 4 3 3 4 4 4 4 5 5 6 6 6 6 7 7
18 19 19 20 20 19 18 18 18 18 17 16 15 14 13 12 12 11 10 10 9 8 8 7 7 6 6 5 4 4 4 4 4 5 5 5 5 6 6 7 7 7 7
19 19 20 20 20 20 20 19 19 19 18 17 16 15 15 14 13 12 11 11 10 9 9 9 8 7 7 6 6 5 5 5 5 5 5 6 6 7 7 7 8 7 8
18 19 20 21 21 21 21 20 20 20 19 18 17 17 16 15 14 14 13 12 11 11 10 10 9 8 8 7 7 7 6 6 6 7 7 7 7 8 8 8 8 8 8
18 19 19 22 23 22 23 22 21 20 19 18 18 17 17 16 15 14 14 13 13 12 12 11 10 10 10 9 8 8 8 8 8 8 9 9 9 9 10 10 10 10 10
19 20 20 22 24 24 23 23 22 20 20 19 19 18 17 17 16 16 15 15 14 14 13 13 12 12 11 11 10 10 10 10 10 11 11 11 11 12 12 13 13 13 13
20 20 20 22 24 24 24 23 23 22 21 20 19 19 18 18 17 17 16 16 15 15 15 14 14 14 13 13 12 12 12 12 12 13 14 14 14 14 14 15 15 16 16
20 19 20 20 23 24 23 22 23 22 22 21 20 20 19 19 18 18 17 17 17 17 16 16 16 16 15 15 15 15 14 14 15 16 16 16 16 17 17 17 18 18 18
20 19 19 20 22 23 23 23 23 23 23 22 21 21 21 20 20 19 19 19 18 18 18 18 18 17 18 17 17 17 17 17 18 18 18 18 19 19 20 20 20 20 20
24 22 21 21 23 24 24 24 24 24 23 23 22 22 22 21 21 21 20 20 19 19 20 19 19 20 19 19 19 18 19 19 20 20 20 20 21 21 21 21 21 21 22
26 25 24 23 23 24 24 25 25 24 24 24 23 23 23 22 22 22 21 21 21 21 22 21 22 22 22 21 21 21 21 21 21 22 22 22 22 23 23 23 23 23 23
28 28 26 25 24 24 24 24 25 25 25 25 25 24 24 24 23 23 23 23 23 23 24 23 24 23 23 24 24 24 23 23 22 23 23 24 24 24 24 24 25 25 25
30 30 28 27 25 24 24 24 25 25 26 27 26 25 25 26 25 25 25 24 24 25 25 25 25 25 25 25 25 25 25 25 25 25 25 26 26 27 27 27 27 28 28
32 31 29 28 27 25 24 25 24 26 27 27 26 26 27 27 27 27 27 26 26 27 27 26 26 27 27 26 26 26 26 27 27 27 28 29 29 29 29 29 29 29 30
34 33 30 28 26 25 25 24 25 26 26 27 26 29 29 29 29 30 29 29 28 28 28 28 28 28 28 27 28 28 29 29 29 29 30 31 31 31 31 31 32 33 34
36 34 32 30 28 26 25 25 25 26 27 28 28 28 30 30 31 31 31 30 30 29 30 30 30 30 29 29 29 30 30 30 30 30 31 31 32 33 33 33 34 35 36
38 36 34 32 30 29 27 26 26 26 26 28 29 29 30 31 31 32 32 31 30 30 30 30 30 30 30 30 30 30 30 30 30 30 32 33 34 34 35 35 35 36 37
40 39 37 34 32 31 29 28 26 26 26 27 28 28 30 30 29 30 31 32 31 32 31 30 31 31 31 30 29 30 31 32 32 32 33 34 35 35 36 36 37 38 40
41 40 38 36 34 33 31 29 27 26 25 26 27 27 29 30 31 31 32 32 33 34 33 32 32 31 31 32 32 32 32 33 33 34 34 35 36 37 38 39 40 40 42
40 40 39 37 35 34 32 31 30 28 27 27 27 26 27 29 30 30 29 29 29 30 30 31 32 31 32 32 32 32 32 33 34 35 36 37 38 39 40 41 42 44 46
Wind_Direction
201 195 192 192 192 193 195 200 204 205 204 202 200 195 190 191 195 209 223 229 298 323 321 322 318 312 306 305 304 302 302 303 303 304 307 307 304 300 296 292 289 292 297
211 206 202 198 199 198 201 206 211 213 212 209 207 206 208 213 219 227 230 236 253 276 289 293 292 288 285 285 288 290 292 294 297 304 305 303 300 296 290 288 285 287 288
218 215 209 204 204 204 206 210 213 216 217 216 214 214 219 224 229 236 240 243 251 259 266 267 268 269 270 271 275 279 285 292 296 301 301 301 301 298 291 287 284 286 284
222 218 214 210 209 209 211 213 215 218 220 221 220 221 225 230 234 240 244 246 249 253 254 253 254 255 255 258 262 268 282 297 300 299 296 298 301 300 296 291 286 283 282
225 222 221 215 212 214 216 216 217 221 223 223 223 225 229 232 234 239 243 243 244 245 245 246 245 243 244 248 254 268 289 304 303 303 302 303 302 303 303 298 289 283 281
226 224 225 221 218 219 221 220 220 222 224 225 225 227 230 231 233 236 238 239 239 238 238 237 234 233 237 243 254 269 291 303 306 310 311 308 305 304 300 296 293 286 281
233 227 226 224 223 223 224 225 226 225 227 226 226 228 230 231 233 234 235 236 237 234 232 229 228 230 236 245 252 265 284 296 305 310 309 308 307 306 302 295 291 284 281
238 230 228 226 226 227 228 230 229 229 229 229 229 229 230 231 233 233 234 234 234 232 228 226 227 230 235 242 251 261 268 285 300 306 304 303 303 302 301 297 295 286 281
237 234 230 228 230 231 232 233 232 231 231 231 232 231 231 232 232 233 233 232 230 229 226 227 229 230 234 243 250 256 260 272 285 293 295 296 297 298 298 298 299 294 284
240 238 234 229 231 233 233 234 235 233 232 232 234 234 233 233 233 233 233 230 228 227 227 228 231 233 238 242 245 251 259 269 277 283 289 293 291 293 294 296 297 294 288
247 242 239 233 233 236 235 236 236 233 232 232 234 234 234 234 234 234 233 231 228 227 227 230 233 236 237 239 245 253 261 269 275 279 284 290 291 289 290 292 290 290 287
247 246 245 243 236 235 237 236 235 233 232 232 233 234 234 234 235 236 234 232 230 228 228 231 235 237 237 242 248 256 263 269 273 277 282 286 288 287 286 286 286 288 287
251 247 248 241 234 234 234 234 234 231 230 231 232 233 233 233 235 236 236 234 232 231 230 232 236 237 240 244 248 255 261 267 272 276 279 281 285 286 285 285 284 286 286
255 249 246 237 231 231 231 231 233 232 231 230 231 232 233 233 235 237 237 236 235 234 233 234 237 239 242 245 249 253 258 265 272 275 277 279 282 284 285 285 284 285 284
250 247 242 237 232 229 230 232 232 233 233 230 232 233 233 234 236 237 237 237 238 237 237 238 240 242 244 246 250 254 259 267 271 274 277 279 282 283 283 283 284 284 284
245 241 238 237 233 230 230 233 232 234 234 235 234 234 234 235 236 236 237 238 240 240 240 241 243 244 246 250 253 256 262 269 272 272 275 278 280 282 282 281 281 283 283
239 238 237 239 237 230 230 232 232 232 232 232 232 234 234 236 237 238 238 239 241 241 242 243 246 246 248 251 255 259 264 269 272 274 274 277 280 282 283 282 281 281 282
237 238 237 238 235 233 232 235 235 234 234 234 234 233 235 237 237 240 240 241 242 243 245 246 249 251 253 254 257 260 264 267 271 274 276 278 281 282 282 283 281 280 279
236 236 235 235 238 235 235 237 236 237 236 236 237 235 236 240 239 240 242 243 245 245 246 248 251 253 256 258 260 261 264 267 271 275 277 280 283 283 282 281 281 280 278
235 232 234 234 237 237 236 236 238 240 238 240 239 238 238 239 241 242 244 244 245 246 247 251 254 256 259 261 262 264 267 270 273 276 278 280 281 282 281 281 280 280 279
231 232 234 239 241 239 238 240 242 242 241 241 243 242 240 241 242 244 245 247 248 249 251 253 257 259 261 262 264 266 270 273 274 275 278 279 280 280 281 280 280 279 280
230 233 235 239 243 246 245 243 244 243 241 243 247 246 244 244 246 246 247 247 249 252 253 255 257 259 260 262 264 267 271 272 274 275 276 279 280 279 280 281 281 281 280
231 234 237 239 243 248 249 250 253 249 247 247 249 248 247 247 246 247 247 249 251 254 255 257 259 261 262 264 266 267 270 273 274 275 276 277 279 280 280 281 281 281 281
229 233 237 239 244 249 251 254 257 258 256 254 254 253 249 249 248 247 248 251 251 252 255 257 261 261 261 263 266 268 270 274 275 276 277 278 279 280 281 281 281 281 282
228 232 235 239 242 247 252 256 260 261 262 261 259 258 252 250 250 249 248 250 252 253 255 257 258 259 261 263 267 269 271 274 276 277 278 278 279 280 281 281 282 282 283
228 231 235 238 241 245 250 255 259 263 262 263 263 260 256 251 248 249 248 250 253 253 256 256 257 257 261 263 265 268 271 273 276 278 280 281 282 282 282 282 283 284 284
Height
5900 5900 5900 5900 5901 5902 5903 5904 5905 5906 5906 5907 5907 5907 5907 5907 5907 5908 5908 5908 5908 5908 5908 5908 5908 5908 5908 5907 5907 5907 5906 5906 5906 5905 5905 5904 5904 5904 5904 5903 5903 5903 5903
5898 5898 5899 5899 5900 5900 5901 5902 5903 5904 5905 5905 5905 5905 5905 5906 5906 5906 5907 5907 5907 5907 5907 5907 5907 5907 5907 5907 5906 5906 5906 5905 5905 5905 5904 5904 5903 5903 5903 5902 5902 5902 5902
5896 5896 5897 5897 5898 5898 5899 5900 5901 5902 5903 5903 5903 5904 5904 5904 5905 5905 5905 5905 5906 5906 5906 5906 5906 5906 5906 5906 5905 5905 5905 5905 5904 5904 5903 5903 5902 5902 5902 5901 5901 5901 5901
5893 5893 5894 5895 5896 5897 5897 5898 5899 5900 5901 5901 5902 5902 5903 5903 5903 5904 5904 5904 5904 5904 5905 5905 5905 5905 5905 5905 5904 5904 5904 5904 5903 5903 5902 5902 5901 5901 5901 5900 5900 5900 5900
5890 5891 5892 5893 5893 5894 5895 5896 5897 5898 5899 5899 5900 5900 5901 5901 5902 5902 5902 5903 5903 5903 5903 5903 5903 5903 5904 5904 5903 5903 5903 5903 5902 5902 5901 5901 5901 5900 5899 5899 5899 5899 5898
5887 5888 5889 5890 5891 5891 5892 5893 5895 5896 5896 5897 5897 5898 5899 5899 5900 5901 5901 5901 5901 5902 5902 5902 5902 5902 5902 5902 5902 5902 5902 5902 5901 5901 5900 5900 5899 5899 5899 5898 5898 5898 5897
5884 5885 5886 5887 5888 5889 5890 5891 5892 5893 5894 5894 5895 5896 5897 5898 5898 5899 5899 5900 5900 5900 5900 5900 5901 5901 5901 5901 5901 5901 5901 5901 5901 5900 5899 5899 5899 5898 5898 5897 5897 5896 5896
5880 5881 5882 5883 5885 5886 5887 5888 5889 5890 5891 5892 5893 5894 5895 5895 5896 5897 5897 5898 5898 5899 5899 5899 5899 5899 5900 5900 5900 5900 5900 5900 5900 5899 5899 5898 5898 5897 5897 5896 5896 5895 5895
5877 5878 5879 5880 5881 5883 5884 5885 5886 5887 5888 5889 5891 5891 5892 5893 5894 5895 5895 5896 5897 5897 5897 5898 5898 5898 5899 5899 5899 5899 5899 5899 5898 5898 5898 5897 5897 5896 5896 5895 5894 5894 5894
5873 5874 5875 5876 5878 5879 5880 5882 5883 5884 5885 5886 5888 5888 5889 5890 5891 5892 5893 5894 5895 5895 5896 5896 5896 5897 5897 5897 5898 5898 5898 5897 5897 5897 5896 5896 5895 5895 5894 5893 5893 5892 5892
5870 5871 5871 5873 5874 5876 5877 5878 5879 5881 5882 5883 5884 5885 5886 5887 5888 5889 5891 5892 5893 5893 5894 5895 5895 5895 5895 5896 5896 5896 5896 5896 5896 5895 5895 5894 5893 5893 5892 5891 5891 5890 5890
5866 5867 5867 5868 5870 5872 5873 5874 5876 5877 5878 5879 5881 5882 5883 5884 5885 5886 5887 5889 5890 5891 5892 5892 5893 5893 5893 5894 5894 5894 5894 5894 5893 5893 5893 5892 5891 5890 5890 5889 5888 5888 5887
5861 5862 5863 5864 5866 5868 5870 5871 5873 5874 5875 5876 5877 5879 5880 5881 5882 5883 5884 5885 5887 5888 5889 5890 5890 5891 5891 5892 5892 5892 5892 5891 5891 5890 5890 5889 5889 5888 5887 5886 5885 5885 5884
5857 5858 5859 5860 5861 5863 5865 5867 5869 5870 5872 5872 5874 5875 5876 5877 5879 5880 5881 5882 5883 5885 5886 5887 5887 5888 5888 5889 5889 5889 5889 5889 5888 5887 5887 5886 5885 5885 5884 5883 5882 5881 5880
5854 5854 5856 5857 5858 5860 5861 5863 5865 5867 5868 5869 5870 5871 5873 5874 5875 5876 5877 5878 5880 5881 5882 5883 5884 5885 5885 5885 5886 5886 5886 5885 5885 5884 5883 5883 5882 5881 5880 5879 5878 5877 5876
5849 5850 5851 5852 5854 5856 5858 5860 5861 5862 5864 5865 5866 5867 5868 5870 5871 5872 5873 5875 5876 5878 5879 5880 5880 5881 5881 5882 5882 5882 5882 5882 5881 5880 5879 5879 5878 5877 5876 5875 5874 5873 5872
5844 5846 5847 5848 5850 5851 5853 5855 5857 5858 5859 5860 5862 5863 5864 5866 5867 5868 5870 5871 5872 5873 5874 5875 5876 5877 5877 5878 5878 5878 5878 5877 5877 5876 5875 5874 5874 5872 5871 5870 5870 5868 5867
5839 5841 5842 5843 5845 5847 5849 5851 5852 5852 5853 5855 5857 5858 5860 5861 5862 5864 5866 5867 5868 5869 5870 5871 5872 5872 5873 5873 5874 5874 5873 5873 5872 5871 5871 5870 5869 5868 5866 5865 5864 5863 5862
5834 5835 5837 5838 5840 5842 5843 5846 5847 5848 5849 5850 5851 5853 5855 5856 5857 5859 5861 5862 5863 5864 5865 5866 5867 5868 5868 5869 5869 5869 5869 5868 5868 5867 5866 5865 5864 5862 5861 5860 5859 5857 5856
5828 5830 5831 5833 5835 5836 5838 5840 5842 5843 5844 5845 5846 5848 5849 5851 5853 5855 5856 5857 5858 5859 5860 5861 5862 5863 5863 5863 5863 5864 5863 5863 5863 5862 5861 5859 5858 5857 5855 5854 5852 5851 5850
5821 5824 5826 5828 5828 5830 5833 5835 5837 5837 5839 5841 5841 5843 5844 5845 5847 5849 5850 5851 5852 5854 5855 5855 5856 5857 5857 5858 5858 5858 5857 5857 5856 5856 5854 5853 5852 5850 5849 5847 5846 5844 5843
5815 5818 5821 5822 5824 5826 5829 5830 5831 5832 5833 5835 5835 5837 5839 5840 5841 5842 5844 5845 5846 5848 5849 5849 5850 5851 5851 5852 5852 5852 5851 5851 5850 5849 5848 5846 5845 5843 5842 5840 5839 5837 5835
5809 5812 5814 5817 5820 5821 5823 5824 5824 5825 5827 5829 5830 5831 5833 5835 5835 5836 5837 5838 5840 5841 5842 5843 5844 5845 5845 5845 5845 5845 5845 5844 5843 5842 5841 5839 5838 5836 5834 5833 5831 5829 5827
5802 5805 5808 5811 5814 5816 5817 5819 5819 5820 5821 5823 5825 5826 5827 5827 5828 5829 5830 5832 5833 5834 5836 5836 5837 5838 5839 5839 5839 5838 5838 5837 5836 5835 5834 5832 5830 5828 5826 5824 5822 5820 5818
5795 5798 5802 5805 5808 5810 5811 5813 5814 5815 5816 5817 5818 5819 5820 5821 5822 5822 5824 5825 5826 5828 5829 5830 5831 5831 5832 5832 5832 5831 5830 5829 5828 5827 5826 5824 5822 5820 5818 5815 5813 5810 5808
5788 5792 5795 5798 5801 5803 5806 5807 5809 5810 5810 5811 5812 5813 5814 5814 5815 5816 5817 5818 5819 5821 5822 5823 5824 5824 5824 5824 5824 5824 5823 5822 5821 5819 5817 5816 5814 5811 5809 5806 5803 5800 5797